Time,TemperatureF,DewpointF,PressureIn,WindDirection,WindDirectionDegrees,WindSpeedMPH,WindSpeedGustMPH,Humidity,HourlyPrecipIn,Conditions,Clouds,dailyrainin,SoftwareType,DateUTC
2013-02-10 00:00:00,15.1,3.7,30.16,West,270,6.3,6.3,60,0.00,,,0.00,WUHU216HW,2013-02-10 05:00:00,
2013-02-10 00:05:00,15.1,3.7,30.16,SE,135,1.1,6.3,60,0.00,,,0.00,WUHU216HW,2013-02-10 05:05:00,
2013-02-10 00:10:00,14.9,3.2,30.16,West,270,6.3,6.3,59,0.00,,,0.00,WUHU216HW,2013-02-10 05:10:00,
2013-02-10 00:15:00,14.9,3.2,30.16,North,0,1.1,6.3,59,0.00,,,0.00,WUHU216HW,2013-02-10 05:15:00,
2013-02-10 00:20:00,14.9,3.2,30.16,SW,225,3.4,5.4,59,0.00,,,0.00,WUHU216HW,2013-02-10 05:20:00,
2013-02-10 00:25:00,15.1,2.9,30.16,SSW,203,4.5,5.4,58,0.00,,,0.00,WUHU216HW,2013-02-10 05:25:00,
2013-02-10 00:30:00,15.1,3.3,30.16,North,0,0.0,5.4,59,0.00,,,0.00,WUHU216HW,2013-02-10 05:30:00,
2013-02-10 00:35:00,15.1,3.3,30.16,West,270,2.9,6.7,59,0.00,,,0.00,WUHU216HW,2013-02-10 05:35:00,
2013-02-10 00:40:00,15.1,3.3,30.16,WNW,293,1.8,6.7,59,0.00,,,0.00,WUHU216HW,2013-02-10 05:40:00,
2013-02-10 00:45:00,15.3,3.1,30.17,SW,225,2.9,5.8,58,0.00,,,0.00,WUHU216HW,2013-02-10 05:45:00,
2013-02-10 00:50:00,15.1,3.3,30.17,WNW,293,2.5,5.1,59,0.00,,,0.00,WUHU216HW,2013-02-10 05:50:00,
2013-02-10 00:55:00,15.1,3.3,30.17,North,0,1.3,4.7,59,0.00,,,0.00,WUHU216HW,2013-02-10 05:55:00,
2013-02-10 01:00:00,15.3,3.1,30.17,NW,315,1.6,5.1,58,0.00,,,0.00,WUHU216HW,2013-02-10 06:00:00,
2013-02-10 01:05:00,15.3,3.1,30.17,NE,45,0.7,5.6,58,0.00,,,0.00,WUHU216HW,2013-02-10 06:05:00,
2013-02-10 01:10:00,15.3,3.1,30.17,West,270,1.8,5.6,58,0.00,,,0.00,WUHU216HW,2013-02-10 06:10:00,
2013-02-10 01:15:00,15.3,3.1,30.17,WSW,248,1.1,4.9,58,0.00,,,0.00,WUHU216HW,2013-02-10 06:15:00,
2013-02-10 01:20:00,15.3,3.4,30.17,WSW,248,0.9,4.7,59,0.00,,,0.00,WUHU216HW,2013-02-10 06:20:00,
2013-02-10 01:25:00,15.3,3.1,30.17,West,270,1.1,5.8,58,0.00,,,0.00,WUHU216HW,2013-02-10 06:25:00,
2013-02-10 01:30:00,15.5,3.6,30.17,NNE,23,0.7,5.8,59,0.00,,,0.00,WUHU216HW,2013-02-10 06:30:00,
2013-02-10 01:35:00,15.5,3.3,30.18,SE,135,1.6,5.6,58,0.00,,,0.00,WUHU216HW,2013-02-10 06:35:00,
2013-02-10 01:40:00,15.5,3.3,30.18,East,90,3.4,6.3,58,0.00,,,0.00,WUHU216HW,2013-02-10 06:40:00,
2013-02-10 01:45:00,15.7,3.1,30.18,NE,45,1.6,6.5,57,0.00,,,0.00,WUHU216HW,2013-02-10 06:45:00,
2013-02-10 01:50:00,15.8,3.2,30.18,NNW,338,0.4,6.5,57,0.00,,,0.00,WUHU216HW,2013-02-10 06:50:00,
2013-02-10 01:55:00,15.8,3.2,30.18,SW,225,0.4,5.1,57,0.00,,,0.00,WUHU216HW,2013-02-10 06:55:00,
2013-02-10 02:00:00,15.8,3.2,30.18,West,270,5.4,5.4,57,0.00,,,0.00,WUHU216HW,2013-02-10 07:00:00,
2013-02-10 02:05:00,15.8,3.2,30.18,WSW,248,1.3,5.4,57,0.00,,,0.00,WUHU216HW,2013-02-10 07:05:00,
2013-02-10 02:10:00,16.0,3.3,30.18,SSW,203,1.3,6.9,57,0.00,,,0.00,WUHU216HW,2013-02-10 07:10:00,
2013-02-10 02:15:00,16.0,3.3,30.19,NE,45,0.0,6.9,57,0.00,,,0.00,WUHU216HW,2013-02-10 07:15:00,
2013-02-10 02:20:00,16.2,3.2,30.19,NW,315,6.0,7.2,56,0.00,,,0.00,WUHU216HW,2013-02-10 07:20:00,
2013-02-10 02:25:00,16.4,3.3,30.18,NE,45,1.3,7.2,56,0.00,,,0.00,WUHU216HW,2013-02-10 07:25:00,
2013-02-10 02:30:00,16.2,3.2,30.19,NE,45,3.6,6.7,56,0.00,,,0.00,WUHU216HW,2013-02-10 07:30:00,
2013-02-10 02:35:00,16.2,3.2,30.19,South,180,3.8,4.0,56,0.00,,,0.00,WUHU216HW,2013-02-10 07:35:00,
2013-02-10 02:40:00,16.2,3.2,30.19,ENE,68,2.0,5.1,56,0.00,,,0.00,WUHU216HW,2013-02-10 07:40:00,
2013-02-10 02:45:00,16.0,3.3,30.19,East,90,0.7,5.1,57,0.00,,,0.00,WUHU216HW,2013-02-10 07:45:00,
2013-02-10 02:50:00,16.0,3.0,30.19,WNW,293,3.1,4.0,56,0.00,,,0.00,WUHU216HW,2013-02-10 07:50:00,
2013-02-10 02:55:00,16.0,3.3,30.20,NNE,23,1.8,4.0,57,0.00,,,0.00,WUHU216HW,2013-02-10 07:55:00,
2013-02-10 03:00:00,15.8,3.2,30.20,WNW,293,0.4,4.0,57,0.00,,,0.00,WUHU216HW,2013-02-10 08:00:00,
2013-02-10 03:05:00,15.8,3.2,30.20,SW,225,2.9,4.0,57,0.00,,,0.00,WUHU216HW,2013-02-10 08:05:00,
2013-02-10 03:10:00,15.7,3.1,30.20,SSW,203,0.7,3.1,57,0.00,,,0.00,WUHU216HW,2013-02-10 08:10:00,
2013-02-10 03:15:00,15.5,2.9,30.21,West,270,0.2,2.9,57,0.00,,,0.00,WUHU216HW,2013-02-10 08:15:00,
2013-02-10 03:20:00,15.3,2.7,30.21,WSW,248,0.2,3.4,57,0.00,,,0.00,WUHU216HW,2013-02-10 08:20:00,
2013-02-10 03:25:00,15.1,2.5,30.21,SW,225,1.1,3.4,57,0.00,,,0.00,WUHU216HW,2013-02-10 08:25:00,
2013-02-10 03:30:00,14.9,2.7,30.21,SW,225,0.0,2.5,58,0.00,,,0.00,WUHU216HW,2013-02-10 08:30:00,
2013-02-10 03:35:00,14.8,2.6,30.21,NW,315,0.4,2.5,58,0.00,,,0.00,WUHU216HW,2013-02-10 08:35:00,
2013-02-10 03:40:00,14.4,2.3,30.21,WSW,248,0.0,1.1,58,0.00,,,0.00,WUHU216HW,2013-02-10 08:40:00,
2013-02-10 03:45:00,14.2,2.1,30.21,SW,225,0.0,0.9,58,0.00,,,0.00,WUHU216HW,2013-02-10 08:45:00,
2013-02-10 03:50:00,14.0,1.9,30.21,SW,225,0.0,0.0,58,0.00,,,0.00,WUHU216HW,2013-02-10 08:50:00,
2013-02-10 03:55:00,13.5,1.4,30.21,SW,225,0.0,0.0,58,0.00,,,0.00,WUHU216HW,2013-02-10 08:55:00,
2013-02-10 04:00:00,13.3,1.2,30.21,SW,225,0.0,0.0,58,0.00,,,0.00,WUHU216HW,2013-02-10 09:00:00,
2013-02-10 04:05:00,13.0,1.3,30.21,SW,225,0.0,0.0,59,0.00,,,0.00,WUHU216HW,2013-02-10 09:05:00,
2013-02-10 04:10:00,12.6,0.9,30.21,SW,225,0.0,0.0,59,0.00,,,0.00,WUHU216HW,2013-02-10 09:10:00,
2013-02-10 04:15:00,12.2,0.6,30.22,SW,225,0.0,0.0,59,0.00,,,0.00,WUHU216HW,2013-02-10 09:15:00,
2013-02-10 04:20:00,11.9,0.5,30.22,WSW,248,0.0,0.2,60,0.00,,,0.00,WUHU216HW,2013-02-10 09:20:00,
2013-02-10 04:25:00,11.5,0.3,30.22,WSW,248,0.0,0.2,60,0.00,,,0.00,WUHU216HW,2013-02-10 09:25:00,
2013-02-10 04:30:00,11.2,-0.1,30.23,NE,45,0.0,0.0,60,0.00,,,0.00,WUHU216HW,2013-02-10 09:30:00,
2013-02-10 04:35:00,11.0,-0.3,30.23,NE,45,0.0,0.0,60,0.00,,,0.00,WUHU216HW,2013-02-10 09:35:00,
2013-02-10 04:40:00,10.8,-0.3,30.23,WNW,293,0.0,0.4,60,0.00,,,0.00,WUHU216HW,2013-02-10 09:40:00,
2013-02-10 04:45:00,10.6,-0.3,30.23,NNE,23,0.0,0.4,61,0.00,,,0.00,WUHU216HW,2013-02-10 09:45:00,
2013-02-10 04:50:00,10.4,-0.3,30.23,West,270,0.0,0.0,61,0.00,,,0.00,WUHU216HW,2013-02-10 09:50:00,
2013-02-10 04:55:00,10.3,-0.5,30.23,WSW,248,0.0,0.0,61,0.00,,,0.00,WUHU216HW,2013-02-10 09:55:00,
2013-02-10 05:00:00,10.1,-0.7,30.23,West,270,0.0,0.0,61,0.00,,,0.00,WUHU216HW,2013-02-10 10:00:00,
2013-02-10 05:05:00,9.9,-0.6,30.24,West,270,0.0,0.0,62,0.00,,,0.00,WUHU216HW,2013-02-10 10:05:00,
2013-02-10 05:10:00,9.7,-0.8,30.24,West,270,0.0,0.0,62,0.00,,,0.00,WUHU216HW,2013-02-10 10:10:00,
2013-02-10 05:15:00,9.5,-1.0,30.24,WNW,293,0.4,0.4,62,0.00,,,0.00,WUHU216HW,2013-02-10 10:15:00,
2013-02-10 05:20:00,9.2,-1.3,30.24,West,270,0.0,1.1,62,0.00,,,0.00,WUHU216HW,2013-02-10 10:20:00,
2013-02-10 05:25:00,9.0,-1.4,30.24,West,270,0.0,1.1,62,0.00,,,0.00,WUHU216HW,2013-02-10 10:25:00,
2013-02-10 05:30:00,8.8,-1.3,30.25,West,270,0.0,0.7,63,0.00,,,0.00,WUHU216HW,2013-02-10 10:30:00,
2013-02-10 05:35:00,8.6,-1.5,30.26,SW,225,0.0,0.0,63,0.00,,,0.00,WUHU216HW,2013-02-10 10:35:00,
2013-02-10 05:40:00,8.3,-1.8,30.26,West,270,0.0,0.0,63,0.00,,,0.00,WUHU216HW,2013-02-10 10:40:00,
2013-02-10 05:45:00,8.1,-2.3,30.26,North,0,0.0,0.0,62,0.00,,,0.00,WUHU216HW,2013-02-10 10:45:00,
2013-02-10 05:50:00,7.9,-2.1,30.27,NNE,23,0.0,0.0,63,0.00,,,0.00,WUHU216HW,2013-02-10 10:50:00,
2013-02-10 05:55:00,7.7,-2.3,30.27,West,270,0.0,0.0,63,0.00,,,0.00,WUHU216HW,2013-02-10 10:55:00,
2013-02-10 06:00:00,7.6,-2.5,30.27,NNW,338,0.0,0.0,63,0.00,,,0.00,WUHU216HW,2013-02-10 11:00:00,
2013-02-10 06:05:00,7.4,-2.7,30.27,NNW,338,0.0,0.0,63,0.00,,,0.00,WUHU216HW,2013-02-10 11:05:00,
2013-02-10 06:10:00,7.4,-2.7,30.28,NNW,338,0.0,0.0,63,0.00,,,0.00,WUHU216HW,2013-02-10 11:10:00,
2013-02-10 06:15:00,7.2,-2.5,30.28,NNW,338,0.0,0.0,64,0.00,,,0.00,WUHU216HW,2013-02-10 11:15:00,
2013-02-10 06:20:00,7.0,-2.7,30.28,NNW,338,0.0,0.0,64,0.00,,,0.00,WUHU216HW,2013-02-10 11:20:00,
2013-02-10 06:25:00,6.8,-2.9,30.28,NNW,338,0.0,0.0,64,0.00,,,0.00,WUHU216HW,2013-02-10 11:25:00,
2013-02-10 06:30:00,6.7,-3.1,30.28,NNW,338,0.0,0.0,64,0.00,,,0.00,WUHU216HW,2013-02-10 11:30:00,
2013-02-10 06:35:00,6.5,-3.2,30.29,North,0,0.0,0.0,64,0.00,,,0.00,WUHU216HW,2013-02-10 11:35:00,
2013-02-10 06:40:00,6.5,-3.2,30.29,North,0,0.0,0.0,64,0.00,,,0.00,WUHU216HW,2013-02-10 11:40:00,
2013-02-10 06:45:00,6.3,-3.1,30.29,North,0,0.0,0.0,65,0.00,,,0.00,WUHU216HW,2013-02-10 11:45:00,
2013-02-10 06:50:00,6.1,-3.2,30.30,North,0,0.0,0.0,65,0.00,,,0.00,WUHU216HW,2013-02-10 11:50:00,
2013-02-10 06:55:00,5.8,-3.6,30.30,North,0,0.0,0.0,65,0.00,,,0.00,WUHU216HW,2013-02-10 11:55:00,
2013-02-10 07:00:00,5.4,-4.0,30.30,North,0,0.0,0.0,65,0.00,,,0.00,WUHU216HW,2013-02-10 12:00:00,
2013-02-10 07:05:00,5.2,-4.1,30.31,North,0,0.0,0.0,65,0.00,,,0.00,WUHU216HW,2013-02-10 12:05:00,
2013-02-10 07:10:00,5.0,-4.3,30.31,North,0,0.0,0.0,65,0.00,,,0.00,WUHU216HW,2013-02-10 12:10:00,
2013-02-10 07:15:00,4.9,-4.5,30.32,North,0,0.0,0.0,65,0.00,,,0.00,WUHU216HW,2013-02-10 12:15:00,
2013-02-10 07:20:00,4.9,-4.1,30.31,North,0,0.0,0.0,66,0.00,,,0.00,WUHU216HW,2013-02-10 12:20:00,
2013-02-10 07:25:00,4.7,-4.3,30.32,North,0,0.0,0.0,66,0.00,,,0.00,WUHU216HW,2013-02-10 12:25:00,
2013-02-10 07:30:00,4.5,-4.5,30.32,North,0,0.0,0.0,66,0.00,,,0.00,WUHU216HW,2013-02-10 12:30:00,
2013-02-10 07:35:00,4.5,-4.5,30.32,North,0,0.0,0.0,66,0.00,,,0.00,WUHU216HW,2013-02-10 12:35:00,
2013-02-10 07:40:00,4.5,-4.1,30.32,North,0,0.0,0.0,67,0.00,,,0.00,WUHU216HW,2013-02-10 12:40:00,
2013-02-10 07:45:00,4.7,-4.3,30.33,North,0,0.0,0.0,66,0.00,,,0.00,WUHU216HW,2013-02-10 12:45:00,
2013-02-10 07:50:00,4.9,-3.9,30.33,North,0,0.0,0.0,67,0.00,,,0.00,WUHU216HW,2013-02-10 12:50:00,
2013-02-10 07:55:00,5.2,-3.5,30.33,North,0,0.0,0.0,67,0.00,,,0.00,WUHU216HW,2013-02-10 12:55:00,
2013-02-10 08:00:00,5.6,-3.1,30.33,North,0,0.0,0.0,67,0.00,,,0.00,WUHU216HW,2013-02-10 13:00:00,
2013-02-10 08:05:00,5.9,-2.4,30.34,North,0,0.0,0.0,68,0.00,,,0.00,WUHU216HW,2013-02-10 13:05:00,
2013-02-10 08:10:00,6.1,-2.2,30.34,North,0,0.0,0.0,68,0.00,,,0.00,WUHU216HW,2013-02-10 13:10:00,
2013-02-10 08:15:00,6.7,-1.7,30.34,North,0,0.0,0.0,68,0.00,,,0.00,WUHU216HW,2013-02-10 13:15:00,
2013-02-10 08:20:00,7.0,-1.1,30.34,North,0,0.0,0.0,69,0.00,,,0.00,WUHU216HW,2013-02-10 13:20:00,
2013-02-10 08:25:00,8.3,0.2,30.34,North,0,0.0,0.0,69,0.00,,,0.00,WUHU216HW,2013-02-10 13:25:00,
2013-02-10 08:30:00,9.5,1.7,30.34,North,0,0.0,0.0,70,0.00,,,0.00,WUHU216HW,2013-02-10 13:30:00,
2013-02-10 08:35:00,11.5,3.6,30.35,North,0,0.0,0.0,70,0.00,,,0.00,WUHU216HW,2013-02-10 13:35:00,
2013-02-10 08:40:00,13.7,5.8,30.35,North,0,0.0,0.0,70,0.00,,,0.00,WUHU216HW,2013-02-10 13:40:00,
2013-02-10 08:45:00,16.0,7.9,30.35,North,0,0.0,0.0,70,0.00,,,0.00,WUHU216HW,2013-02-10 13:45:00,
2013-02-10 08:50:00,18.7,10.2,30.35,North,0,0.0,0.0,69,0.00,,,0.00,WUHU216HW,2013-02-10 13:50:00,
2013-02-10 08:55:00,21.4,12.4,30.35,North,0,0.0,0.0,68,0.00,,,0.00,WUHU216HW,2013-02-10 13:55:00,
2013-02-10 09:00:00,23.9,14.1,30.35,North,0,0.0,0.0,66,0.00,,,0.00,WUHU216HW,2013-02-10 14:00:00,
2013-02-10 09:05:00,25.6,15.4,30.35,North,0,0.0,0.0,65,0.00,,,0.00,WUHU216HW,2013-02-10 14:05:00,
2013-02-10 09:10:00,27.7,15.2,30.35,North,0,0.0,0.0,59,0.00,,,0.00,WUHU216HW,2013-02-10 14:10:00,
2013-02-10 09:15:00,27.7,14.9,30.35,North,0,0.0,0.0,58,0.00,,,0.00,WUHU216HW,2013-02-10 14:15:00,
2013-02-10 09:20:00,29.9,16.8,30.35,North,0,0.0,0.0,58,0.00,,,0.00,WUHU216HW,2013-02-10 14:20:00,
2013-02-10 09:25:00,30.6,16.3,30.35,North,0,0.0,0.0,55,0.00,,,0.00,WUHU216HW,2013-02-10 14:25:00,
2013-02-10 09:30:00,30.6,14.6,30.35,North,0,0.0,0.0,51,0.00,,,0.00,WUHU216HW,2013-02-10 14:30:00,
2013-02-10 09:35:00,30.4,13.5,30.35,North,0,0.0,0.0,49,0.00,,,0.00,WUHU216HW,2013-02-10 14:35:00,
2013-02-10 09:40:00,30.4,14.1,30.35,North,0,0.0,0.0,50,0.00,,,0.00,WUHU216HW,2013-02-10 14:40:00,
2013-02-10 09:45:00,30.6,12.7,30.36,North,0,0.0,0.0,47,0.00,,,0.00,WUHU216HW,2013-02-10 14:45:00,
2013-02-10 09:50:00,31.3,13.9,30.36,North,0,0.0,0.0,48,0.00,,,0.00,WUHU216HW,2013-02-10 14:50:00,
2013-02-10 09:55:00,32.0,14.5,30.35,North,0,0.0,0.0,48,0.00,,,0.00,WUHU216HW,2013-02-10 14:55:00,
2013-02-10 10:00:00,32.2,13.2,30.36,North,0,0.0,0.0,45,0.00,,,0.00,WUHU216HW,2013-02-10 15:00:00,
2013-02-10 10:05:00,32.6,12.4,30.36,North,0,0.0,0.0,43,0.00,,,0.00,WUHU216HW,2013-02-10 15:05:00,
2013-02-10 10:10:00,33.5,12.8,30.36,North,0,0.0,0.0,42,0.00,,,0.00,WUHU216HW,2013-02-10 15:10:00,
2013-02-10 10:15:00,34.2,14.0,30.36,North,0,0.0,0.0,43,0.00,,,0.00,WUHU216HW,2013-02-10 15:15:00,
2013-02-10 10:20:00,35.6,16.3,30.36,North,0,0.0,0.0,45,0.00,,,0.00,WUHU216HW,2013-02-10 15:20:00,
2013-02-10 10:25:00,37.4,15.9,30.36,North,0,0.0,0.0,41,0.00,,,0.00,WUHU216HW,2013-02-10 15:25:00,
2013-02-10 10:30:00,36.7,9.5,30.36,North,0,0.0,0.0,32,0.01,,,0.01,WUHU216HW,2013-02-10 15:30:00,
2013-02-10 10:35:00,36.4,13.7,30.36,North,0,0.0,0.0,39,0.01,,,0.01,WUHU216HW,2013-02-10 15:35:00,
2013-02-10 10:40:00,38.3,17.2,30.36,North,0,0.0,0.0,42,0.02,,,0.02,WUHU216HW,2013-02-10 15:40:00,
2013-02-10 10:45:00,40.0,18.1,30.35,North,0,0.0,0.0,41,0.02,,,0.02,WUHU216HW,2013-02-10 15:45:00,
2013-02-10 10:50:00,40.3,16.6,30.35,North,0,0.0,0.0,38,0.02,,,0.02,WUHU216HW,2013-02-10 15:50:00,
2013-02-10 10:55:00,40.3,17.3,30.35,North,0,0.0,0.0,39,0.03,,,0.03,WUHU216HW,2013-02-10 15:55:00,
2013-02-10 11:00:00,41.0,16.6,30.35,North,0,0.0,0.0,37,0.03,,,0.03,WUHU216HW,2013-02-10 16:00:00,
2013-02-10 11:05:00,40.3,13.3,30.35,North,0,0.0,0.0,33,0.04,,,0.04,WUHU216HW,2013-02-10 16:05:00,
2013-02-10 11:10:00,40.3,15.3,30.35,North,0,0.0,0.0,36,0.05,,,0.05,WUHU216HW,2013-02-10 16:10:00,
2013-02-10 11:15:00,40.9,15.1,30.35,North,0,0.0,0.0,35,0.06,,,0.06,WUHU216HW,2013-02-10 16:15:00,
2013-02-10 11:20:00,40.9,11.9,30.35,North,0,0.0,0.0,30,0.07,,,0.07,WUHU216HW,2013-02-10 16:20:00,
2013-02-10 11:25:00,41.6,15.8,30.35,North,0,0.0,0.0,35,0.06,,,0.07,WUHU216HW,2013-02-10 16:25:00,
2013-02-10 11:30:00,42.8,16.2,30.34,North,0,0.0,0.0,34,0.06,,,0.07,WUHU216HW,2013-02-10 16:30:00,
2013-02-10 11:34:00,43.7,16.3,30.34,North,0,0.0,0.0,33,0.07,,,0.08,WUHU216HW,2013-02-10 16:34:00,
2013-02-10 11:35:00,43.7,16.3,30.34,North,0,0.0,0.0,33,0.07,,,0.08,WUHU216HW,2013-02-10 16:35:00,
2013-02-10 11:40:00,43.7,16.3,30.34,North,0,0.0,0.0,33,0.07,,,0.08,WUHU216HW,2013-02-10 16:40:00,
2013-02-10 12:00:00,41.9,8.3,30.35,North,0,0.0,0.0,25,0.08,,,0.08,WUHU216HW,2013-02-10 17:00:00,
2013-02-10 12:05:00,42.3,13.1,30.34,North,0,0.0,0.0,30,0.06,,,0.11,WUHU216HW,2013-02-10 17:05:00,
2013-02-10 12:10:00,43.6,13.2,30.34,North,0,0.0,0.0,29,0.06,,,0.11,WUHU216HW,2013-02-10 17:10:00,
2013-02-10 12:15:00,44.1,12.9,30.34,North,0,0.0,0.0,28,0.06,,,0.12,WUHU216HW,2013-02-10 17:15:00,
2013-02-10 12:20:00,44.1,12.0,30.34,North,0,0.0,0.0,27,0.06,,,0.13,WUHU216HW,2013-02-10 17:20:00,
2013-02-10 12:25:00,43.9,12.7,30.34,North,0,0.0,0.0,28,0.06,,,0.13,WUHU216HW,2013-02-10 17:25:00,
2013-02-10 12:30:00,44.3,15.5,30.34,North,0,0.0,0.0,31,0.06,,,0.14,WUHU216HW,2013-02-10 17:30:00,
2013-02-10 12:35:00,44.3,15.5,30.34,North,0,0.0,0.0,31,0.06,,,0.14,WUHU216HW,2013-02-10 17:35:00,
2013-02-10 12:40:00,44.8,13.5,30.33,North,0,0.0,0.0,28,0.06,,,0.15,WUHU216HW,2013-02-10 17:40:00,
2013-02-10 12:45:00,45.0,16.7,30.33,North,0,0.0,0.0,32,0.06,,,0.15,WUHU216HW,2013-02-10 17:45:00,
2013-02-10 12:50:00,45.4,16.5,30.33,North,0,0.0,0.0,31,0.05,,,0.15,WUHU216HW,2013-02-10 17:50:00,
2013-02-10 12:55:00,45.7,17.5,30.32,North,0,0.0,0.0,32,0.05,,,0.16,WUHU216HW,2013-02-10 17:55:00,
2013-02-10 13:00:00,45.4,15.8,30.32,North,0,0.0,0.0,30,0.05,,,0.16,WUHU216HW,2013-02-10 18:00:00,
2013-02-10 13:05:00,45.9,17.6,30.31,North,0,0.0,0.0,32,0.05,,,0.16,WUHU216HW,2013-02-10 18:05:00,
2013-02-10 13:10:00,45.9,11.7,30.31,North,0,0.0,0.0,25,0.05,,,0.16,WUHU216HW,2013-02-10 18:10:00,
2013-02-10 13:15:00,45.7,16.7,30.31,North,0,0.0,0.0,31,0.05,,,0.17,WUHU216HW,2013-02-10 18:15:00,
2013-02-10 13:20:00,46.1,16.4,30.31,North,0,0.0,0.0,30,0.04,,,0.17,WUHU216HW,2013-02-10 18:20:00,
2013-02-10 13:25:00,45.9,14.4,30.31,North,0,0.0,0.0,28,0.03,,,0.17,WUHU216HW,2013-02-10 18:25:00,
2013-02-10 13:30:00,45.7,16.7,30.30,North,0,0.0,0.0,31,0.03,,,0.17,WUHU216HW,2013-02-10 18:30:00,
2013-02-10 13:35:00,46.6,18.3,30.31,North,0,0.0,0.0,32,0.03,,,0.18,WUHU216HW,2013-02-10 18:35:00,
2013-02-10 13:40:00,47.5,19.1,30.30,North,0,0.0,0.0,32,0.04,,,0.18,WUHU216HW,2013-02-10 18:40:00,
2013-02-10 13:45:00,47.3,16.7,30.30,North,0,0.0,0.0,29,0.04,,,0.19,WUHU216HW,2013-02-10 18:45:00,
2013-02-10 13:50:00,47.3,18.2,30.30,North,0,0.0,0.0,31,0.05,,,0.20,WUHU216HW,2013-02-10 18:50:00,
2013-02-10 13:55:00,47.5,17.7,30.30,North,0,0.0,0.0,30,0.05,,,0.21,WUHU216HW,2013-02-10 18:55:00,
2013-02-10 14:00:00,47.9,18.7,30.29,North,0,0.0,0.0,31,0.05,,,0.21,WUHU216HW,2013-02-10 19:00:00,
2013-02-10 14:05:00,48.4,19.2,30.29,North,0,0.0,0.0,31,0.05,,,0.21,WUHU216HW,2013-02-10 19:05:00,
2013-02-10 14:10:00,48.6,19.4,30.29,North,0,0.0,0.0,31,0.04,,,0.21,WUHU216HW,2013-02-10 19:10:00,
2013-02-10 14:15:00,48.6,19.4,30.29,North,0,0.0,0.0,31,0.05,,,0.22,WUHU216HW,2013-02-10 19:15:00,
2013-02-10 14:20:00,48.1,18.9,30.29,North,0,0.0,0.0,31,0.05,,,0.22,WUHU216HW,2013-02-10 19:20:00,
2013-02-10 14:25:00,47.7,16.9,30.29,North,0,0.0,0.0,29,0.06,,,0.23,WUHU216HW,2013-02-10 19:25:00,
2013-02-10 14:29:00,47.2,15.6,30.29,North,0,0.0,0.0,28,0.05,,,0.23,WUHU216HW,2013-02-10 19:29:00,
2013-02-10 14:30:00,47.2,15.6,30.29,North,0,0.0,0.0,28,0.05,,,0.23,WUHU216HW,2013-02-10 19:30:00,
2013-02-10 14:35:00,47.2,15.6,30.29,North,0,0.0,0.0,28,0.05,,,0.23,WUHU216HW,2013-02-10 19:35:00,
2013-02-10 14:59:00,49.1,16.3,30.31,North,0,0.0,0.0,27,0.03,,,0.23,WUHU216HW,2013-02-10 19:59:00,
2013-02-10 15:00:00,49.1,17.2,30.31,North,0,0.0,0.0,28,0.03,,,0.24,WUHU216HW,2013-02-10 20:00:00,
2013-02-10 15:04:00,49.1,17.2,30.31,North,0,0.0,0.0,28,0.03,,,0.24,WUHU216HW,2013-02-10 20:04:00,
2013-02-10 15:09:00,49.1,17.2,30.31,North,0,0.0,0.0,28,0.03,,,0.24,WUHU216HW,2013-02-10 20:09:00,
2013-02-10 15:30:00,52.9,21.4,30.31,North,0,0.0,0.0,29,0.03,,,0.24,WUHU216HW,2013-02-10 20:30:00,
2013-02-10 15:35:00,52.9,21.4,30.31,North,0,0.0,0.0,29,0.03,,,0.24,WUHU216HW,2013-02-10 20:35:00,
2013-02-10 16:00:00,49.3,17.4,30.33,North,0,0.0,0.0,28,0.02,,,0.26,WUHU216HW,2013-02-10 21:00:00,
2013-02-10 16:05:00,49.3,17.4,30.33,North,0,0.0,0.0,28,0.02,,,0.26,WUHU216HW,2013-02-10 21:05:00,
2013-02-10 16:30:00,43.2,13.9,30.31,North,0,0.0,0.0,30,0.01,,,0.26,WUHU216HW,2013-02-10 21:30:00,
2013-02-10 16:35:00,43.2,13.9,30.31,North,0,0.0,0.0,30,0.01,,,0.26,WUHU216HW,2013-02-10 21:35:00,
2013-02-10 17:00:00,40.1,14.5,30.31,North,0,0.0,0.0,35,0.01,,,0.27,WUHU216HW,2013-02-10 22:00:00,
2013-02-10 17:05:00,40.1,14.5,30.31,North,0,0.0,0.0,35,0.01,,,0.27,WUHU216HW,2013-02-10 22:05:00,
2013-02-10 17:30:00,36.4,13.7,30.32,North,0,0.0,0.0,39,0.00,,,0.27,WUHU216HW,2013-02-10 22:30:00,
2013-02-10 17:35:00,36.4,13.7,30.32,North,0,0.0,0.0,39,0.00,,,0.27,WUHU216HW,2013-02-10 22:35:00,
2013-02-10 18:00:00,33.5,12.8,30.32,North,0,0.0,0.0,42,0.00,,,0.27,WUHU216HW,2013-02-10 23:00:00,
2013-02-10 18:05:00,33.5,12.8,30.32,North,0,0.0,0.0,42,0.00,,,0.27,WUHU216HW,2013-02-10 23:05:00,
2013-02-10 18:30:00,31.3,12.3,30.32,North,0,0.0,0.0,45,0.00,,,0.27,WUHU216HW,2013-02-10 23:30:00,
2013-02-10 18:35:00,31.3,12.3,30.32,North,0,0.0,0.0,45,0.00,,,0.27,WUHU216HW,2013-02-10 23:35:00,
2013-02-10 19:00:00,29.2,11.9,30.33,North,0,0.0,0.0,48,0.00,,,0.27,WUHU216HW,2013-02-11 00:00:00,
2013-02-10 19:05:00,29.2,11.9,30.33,North,0,0.0,0.0,48,0.00,,,0.27,WUHU216HW,2013-02-11 00:05:00,
2013-02-10 19:30:00,27.7,11.0,30.33,North,0,0.0,0.0,49,0.00,,,0.27,WUHU216HW,2013-02-11 00:30:00,
2013-02-10 19:35:00,27.7,11.0,30.33,North,0,0.0,0.0,49,0.00,,,0.27,WUHU216HW,2013-02-11 00:35:00,
2013-02-10 20:00:00,25.7,10.4,30.33,North,0,0.0,0.0,52,0.00,,,0.27,WUHU216HW,2013-02-11 01:00:00,
2013-02-10 20:05:00,25.7,10.4,30.33,North,0,0.0,0.0,52,0.00,,,0.27,WUHU216HW,2013-02-11 01:05:00,
2013-02-10 20:30:00,24.8,10.9,30.32,North,0,0.0,0.0,55,0.00,,,0.27,WUHU216HW,2013-02-11 01:30:00,
2013-02-10 20:35:00,24.8,10.9,30.32,North,0,0.0,0.0,55,0.00,,,0.27,WUHU216HW,2013-02-11 01:35:00,
2013-02-10 21:00:00,23.4,9.9,30.33,North,0,0.0,0.0,56,0.00,,,0.27,WUHU216HW,2013-02-11 02:00:00,
2013-02-10 21:05:00,23.4,9.9,30.33,North,0,0.0,0.0,56,0.00,,,0.27,WUHU216HW,2013-02-11 02:05:00,
2013-02-10 21:30:00,21.8,8.4,30.32,North,0,0.0,0.0,56,0.00,,,0.27,WUHU216HW,2013-02-11 02:30:00,
2013-02-10 21:35:00,21.8,8.4,30.32,North,0,0.0,0.0,56,0.00,,,0.27,WUHU216HW,2013-02-11 02:35:00,
2013-02-10 22:00:00,21.1,8.1,30.32,North,0,0.0,0.0,57,0.00,,,0.27,WUHU216HW,2013-02-11 03:00:00,
2013-02-10 22:05:00,21.1,8.1,30.32,North,0,0.0,0.0,57,0.00,,,0.27,WUHU216HW,2013-02-11 03:05:00,
2013-02-10 22:30:00,19.8,7.8,30.32,North,0,0.0,0.0,59,0.00,,,0.27,WUHU216HW,2013-02-11 03:30:00,
2013-02-10 22:35:00,19.8,7.8,30.32,North,0,0.0,0.0,59,0.00,,,0.27,WUHU216HW,2013-02-11 03:35:00,
2013-02-10 23:00:00,18.7,7.5,30.33,North,0,0.0,0.0,61,0.00,,,0.27,WUHU216HW,2013-02-11 04:00:00,
2013-02-10 23:05:00,18.7,7.5,30.33,North,0,0.0,0.0,61,0.00,,,0.27,WUHU216HW,2013-02-11 04:05:00,
2013-02-10 23:30:00,17.8,6.7,30.32,North,0,0.0,0.0,61,0.00,,,0.27,WUHU216HW,2013-02-11 04:30:00,
2013-02-10 23:35:00,17.8,6.7,30.32,North,0,0.0,0.0,61,0.00,,,0.27,WUHU216HW,2013-02-11 04:35:00,